Location: Christian Reformed Church
(43.0975°N, 93.8113°W)
Time: 07:05:05
(UTC+00:00)

Okean 1-7 Rocket - Pass Details

Date: 17 March 2026
Orbit: 609 x 643 km, 82.5° (Epoch: 14 April)

Event Time Altitude Azimuth Distance (km) Brightness Sun altitude
Rises 10:41:52 0° 3° (N) 2,926 7.3 -19.2°
Reaches altitude 10° 10:44:26 10° 16° (NNE) 2,007 6.6 -18.7°
Maximum altitude 10:48:10 26° 73° (ENE) 1,227 5.9 -18.1°
Drops below altitude 10° 10:51:52 10° 131° (SE) 1,977 6.6 -17.4°
Sets 10:54:22 0° 144° (SE) 2,872 7.3 -17.0°
